Mobridge, SD

6:17 PM CDT on April 28, 2017 (GMT -0500)
Mobridge Municipal

Weather History for KMBG - January, 2003

Change the Weather History Date:

Wednesday, January 15, 2003

  Actual Average Record
Temperature  
Mean Temperature 4 °F 16 °F  
Max Temperature 12 °F 26 °F 53 °F (2014)
Min Temperature -5 °F 6 °F -33 °F (2009)
Degree Days  
Heating Degree Days 62 49  
Month to date heating degree days 735  
Since 1 July heating degree days 3951  
Cooling Degree Days 0 0  
Month to date cooling degree days 0  
Year to date cooling degree days 0  
Moisture  
Dew Point -2 °F    
Average Humidity 69    
Maximum Humidity 80    
Minimum Humidity 59    
Precipitation  
Precipitation 0.00 in 0.00 in 0.60 in (1915)
Month to date precipitation 0.16  
Year to date precipitation 0.16  
Snow  
Snow 0.00 in - - ()
Month to date snowfall  
Since 1 July snowfall  
Snow Depth -    
Sea Level Pressure  
Sea Level Pressure 30.49 in    
Wind  
Wind Speed 5 mph (North)    
Max Wind Speed 12 mph    
Max Gust Speed -    
Visibility 10 miles    
Events Snow    
T = Trace of Precipitation, MM = Missing Value Source: NWS Daily Summary

Daily Weather History Graph

Daily Weather History Graph

Search for Another Location

Airport or City:

Trip Planner

Search our weather history database for the weather conditions in past years. The results will help you decide how hot, cold, wet, or windy it might be!

Date:

Astronomy

Jan. 15, 2003 Rise Set
Actual Time 8:18 AM CST 5:24 PM CST
Civil Twilight 7:45 AM CST 5:57 PM CST
Nautical Twilight 7:08 AM CST 6:34 PM CST
Astronomical Twilight 6:32 AM CST 7:09 PM CST
Moon 2:44 PM CST (1/15) 6:04 AM CST (1/15)
Length of Visible Light 10h 12m
Length of Day
9h 05m
Waxing Gibbous, 92% of the Moon is Illuminated
Jan 15
Waxing Gibbous
Jan 18
Full
Jan 25
Last Quarter
Feb 1
New
Feb 9
First Quarter

Hourly Weather History & Observations

Time (CST) Temp. Windchill Dew Point Humidity Pressure Visibility Wind Dir Wind Speed Gust Speed Precip Events Conditions
12:55 AM -2.9 °F -11.2 °F -8.0 °F 79% 30.52 in 10.0 mi North 3.5 mph - N/A   Clear
1:55 AM -5.1 °F -15.8 °F -9.9 °F 80% 30.50 in 10.0 mi North 4.6 mph - N/A   Clear
2:55 AM -2.9 °F -15.0 °F -8.0 °F 79% 30.48 in 10.0 mi NNE 5.8 mph - N/A   Clear
3:55 AM -0.9 °F -8.9 °F -7.1 °F 75% 30.46 in 10.0 mi North 3.5 mph - N/A   Clear
4:55 AM 1.0 °F -8.7 °F -4.0 °F 79% 30.45 in 10.0 mi ENE 4.6 mph - N/A   Clear
5:55 AM 1.9 °F -5.6 °F -6.0 °F 69% 30.44 in 10.0 mi NNE 3.5 mph - N/A   Partly Cloudy
6:55 AM 3.0 °F - -7.1 °F 63% 30.44 in 10.0 mi Calm Calm - N/A   Mostly Cloudy
7:55 AM 3.0 °F -4.4 °F -6.0 °F 66% 30.44 in 10.0 mi ENE 3.5 mph - N/A   Overcast
8:55 AM 3.0 °F -8.0 °F -6.0 °F 66% 30.46 in 10.0 mi East 5.8 mph - N/A   Mostly Cloudy
9:55 AM 5.0 °F -5.6 °F -2.9 °F 70% 30.47 in 10.0 mi East 5.8 mph - N/A   Partly Cloudy
10:55 AM 6.1 °F - -2.9 °F 67% 30.48 in 10.0 mi Calm Calm - N/A   Partly Cloudy
11:55 AM 8.1 °F - -2.0 °F 64% 30.49 in 10.0 mi Calm Calm - N/A   Mostly Cloudy
12:55 PM 10.0 °F - -0.9 °F 61% 30.47 in 10.0 mi Calm Calm - N/A   Overcast
1:55 PM 10.9 °F -0.8 °F -0.0 °F 61% 30.46 in 10.0 mi North 8.1 mph - N/A   Overcast
2:55 PM 12.9 °F -0.9 °F 1.0 °F 59% 30.46 in 10.0 mi NNE 11.5 mph - N/A   Overcast
3:55 PM 12.9 °F -0.2 °F 1.0 °F 59% 30.48 in 10.0 mi North 10.4 mph - N/A   Overcast
4:55 PM 12.0 °F 0.5 °F 1.0 °F 61% 30.50 in 10.0 mi North 8.1 mph - N/A   Overcast
5:55 PM 12.9 °F 0.7 °F 1.9 °F 62% 30.51 in 6.0 mi North 9.2 mph - N/A   Haze
6:55 PM 12.0 °F -0.4 °F 3.9 °F 70% 30.53 in 3.0 mi NNW 9.2 mph - 0.00 in Snow Light Snow
7:55 PM 10.9 °F -2.6 °F 5.0 °F 77% 30.56 in 10.0 mi NNW 10.4 mph - 0.00 in   Overcast
8:55 PM 10.9 °F -0.8 °F 3.9 °F 73% 30.56 in 10.0 mi NW 8.1 mph - N/A   Overcast
9:55 PM 10.9 °F 1.4 °F 3.9 °F 73% 30.56 in 10.0 mi NW 5.8 mph - N/A   Overcast
10:55 PM 10.9 °F 0.2 °F 1.9 °F 67% 30.57 in 10.0 mi NNW 6.9 mph - N/A   Overcast
11:55 PM 10.0 °F 3.6 °F 3.9 °F 76% 30.58 in 10.0 mi NNW 3.5 mph - N/A   Overcast